Vorticity
16 16 18 22 21 21 20 12 6 9 12 13 8 11 9 -11 -20 31 -9 24 11 37
17 16 14 8 23 20 19 23 19 13 10 12 14 11 12 9 25 -8 17 30 -0 26
18 19 17 19 6 19 19 19 21 18 15 13 10 12 14 13 18 -14 15 -0 9 -6
14 18 17 17 19 11 16 19 18 23 17 15 12 10 12 14 8 16 -21 24 7 2
14 14 15 16 17 17 16 13 21 21 23 19 14 13 12 12 15 8 -6 3 23 20
13 14 14 14 16 17 18 18 13 17 25 24 20 15 12 14 17 13 2 -16 19 -12
14 13 13 12 13 14 16 19 18 14 16 25 26 21 17 14 12 15 18 11 -20 1
15 15 14 15 15 15 16 17 18 19 15 16 22 28 20 18 16 15 20 17 4 3
15 13 15 16 16 16 15 15 16 16 18 17 17 21 25 22 18 15 17 22 12 -4
13 13 14 15 16 15 15 14 13 14 16 18 19 16 20 24 24 19 18 21 27 -1
13 13 13 15 15 16 16 15 10 11 15 19 19 19 17 18 23 26 20 15 16 25
13 11 11 14 12 16 16 15 13 10 13 17 22 21 23 21 19 25 28 19 19 26
13 12 11 10 13 17 14 15 15 11 10 13 16 17 26 23 21 18 28 25 17 18
13 14 13 14 14 12 16 13 13 13 15 18 22 18 16 29 30 20 21 28 19 20
Height
3001 2998 2999 3001 3002 3004 3008 3013 3018 3023 3027 3032 3037 3042 3047 3051 3058 3058 3064 3067 3069 3074
2990 2987 2983 2982 2985 2987 2990 2994 2998 3003 3009 3014 3019 3024 3030 3036 3043 3048 3049 3054 3057 3062
2977 2974 2972 2970 2968 2970 2972 2975 2979 2983 2988 2995 3001 3006 3012 3019 3027 3032 3038 3043 3045 3051
2966 2962 2959 2957 2956 2954 2954 2958 2960 2964 2969 2974 2981 2988 2994 3000 3009 3016 3023 3026 3033 3038
2953 2950 2947 2944 2942 2941 2939 2940 2942 2945 2949 2954 2960 2967 2974 2981 2988 2997 3006 3016 3018 3025
2944 2939 2936 2932 2929 2927 2926 2926 2926 2926 2930 2934 2939 2946 2954 2961 2969 2976 2987 2997 3002 3010
2935 2930 2925 2920 2917 2914 2912 2911 2912 2912 2912 2916 2920 2925 2933 2940 2947 2956 2965 2976 2986 2993
2926 2920 2915 2911 2906 2902 2900 2898 2896 2897 2898 2899 2902 2907 2912 2919 2925 2934 2943 2954 2966 2976
2917 2911 2907 2902 2897 2892 2888 2886 2884 2883 2882 2884 2885 2891 2894 2897 2904 2912 2921 2931 2945 2957
2908 2903 2898 2891 2886 2882 2878 2874 2872 2871 2869 2868 2869 2873 2876 2879 2881 2888 2898 2909 2921 2935
2900 2894 2888 2882 2877 2873 2868 2864 2861 2858 2856 2853 2853 2854 2857 2860 2862 2864 2874 2886 2898 2911
2894 2886 2880 2874 2869 2864 2858 2855 2851 2847 2842 2838 2837 2837 2838 2839 2840 2843 2850 2862 2874 2887
2888 2880 2873 2867 2861 2855 2849 2844 2840 2835 2831 2825 2820 2819 2819 2820 2820 2822 2831 2841 2850 2864
2884 2876 2868 2861 2854 2847 2841 2836 2831 2825 2821 2814 2806 2801 2799 2800 2800 2802 2808 2815 2826 2841